Tracking 27401 objects as of 4-Jun-2023
HD Live streaming from Space Station
objects crossing your sky now

HETE 2

Track HETE 2 now!
10-day predictions
HETE 2 is classified as:


NORAD ID: 26561
Int'l Code: 2000-061A
Perigee: 519.4 km
Apogee: 540.6 km
Inclination: 1.9 °
Period: 95.1 minutes
Semi major axis: 6900 km
RCS: 0.631 m2 (medium)
Launch date: October 9, 2000
Source: United States (US)
Launch site: Kwajalein (KWAJ)

Designed to detect and localize gamma-ray bursts.
Your satellite tracking list
Your tracking list is empty




NASA's NSSDC Master Catalog

Two Line Element Set (TLE):
1 26561U 00061A   23154.51197814  .00006849  00000-0  31009-3 0  9991
2 26561   1.9474 194.6618 0015403  31.6880 328.4088 15.14386525244239
Source of the keplerian elements: AFSPC